Location: Middlebury
(44.0153°N, 73.1678°W)
Time: 08:21:11
(UTC-04:00)

UWE-3 - Pass Details

Date: 28 June 2024
Orbit: 566 x 652 km, 97.8° (Epoch: 12 July)

Event Time Altitude Azimuth Distance (km) Brightness Sun altitude
Rises 03:32:11 0° 11° (NNE) 2,846 ? -13.8°
Reaches altitude 10° 03:34:23 10° 11° (N) 1,927 ? -13.6°
Maximum altitude 03:38:33 82° 284° (WNW) 592 ? -13.1°
Enters shadow 03:41:30 18° 198° (SSW) 1,422 ? -12.8°
